Weather in Bystraya

Russia / Irkutsk Oblast     51°44′28″N   103°26′20″E
temp.,
°C
wind,
m/s
gust,
m/s
humid.,
%
clouds,
%
prec.,
mm/h
press.,
hPa
HPBL,
m
28 january, thu
thu2823:00−26wsw228099 0.0 103526
02:00−25wsw2280100 0.0 103247
05:00−23wsw337995 0.0 102874
08:00−21wsw338298 0.0 102783
11:00−17w3381100 0.0 1024116
14:00−12wnw2575100 0.0 1021245
17:00−11wsw2284100 0.0 102069
20:00−14wnw1187100 0.1 102020
29 january, fri
fri2923:00−14ene129794 1.0 102266
02:00−17nne239797 1.6 1023133
05:00−24ne2299100 0.5 1026249
08:00−25ene1299100 1.1 1029139
11:00−24ene1195100 0.5 1029206
14:00−20e1293100 0.8 1026259
17:00−22e2299100 0.1 1022148
20:00−22ese11100100 0.1 102273
30 january, sat
sat3023:00−21ssw1198100 0.1 102059
02:00−18ssw2295100 0.4 102247
05:00−15ssw2296100 0.1 102334
08:00−16wsw2391100 0.3 102458
11:00−14wnw128998 0.0 1023139
14:00−10w127798 0.0 1019263
17:00−13ese129298 0.0 101838
20:00−16e229599 0.1 102097
31 january, sun
sun3123:00−17n169798 1.3 1022443
02:00−19nne389799 2.1 1027932
05:00−24nne1596100 0.4 1033567
08:00−28wnw0292100 0.4 1039135
11:00−26wnw1583100 0.0 1043706
14:00−23w1478100 0.1 1042824
17:00−24w1187100 0.0 104320
20:00−28wsw128558 0.0 104619
1 february, mon
mon123:00−29wsw22850 0.0 104621
02:00−29wsw23830 0.0 104431
05:00−29wsw33800 0.0 104132
08:00−28wsw337915 0.0 103738
11:00−23w238283 0.0 1033115
14:00−17w127990 0.0 1027203
17:00−19ese129588 0.0 102560
20:00−23ese119676 0.0 102620